Weather History for KRBG - September, 2013

Change the Weather History Date:

Monday, September 9, 2013

  Actual Average Record
Temperature  
Mean Temperature 76 °F 67 °F  
Max Temperature 92 °F 81 °F 98 °F (1993)
Min Temperature 59 °F 53 °F 40 °F (1964)
Degree Days  
Heating Degree Days 0 1  
Month to date heating degree days 0 9  
Since 1 July heating degree days 1 30  
Cooling Degree Days 11 3  
Month to date cooling degree days 58 32  
Year to date cooling degree days 760 443  
Growing Degree Days 25 (Base 50)    
Moisture  
Dew Point 55 °F    
Average Humidity 56    
Maximum Humidity 87    
Minimum Humidity 25    
Precipitation  
Precipitation 0.00 in 0.03 in 0.91 in (1949)
Month to date precipitation 0.10 0.22  
Year to date precipitation 8.64 19.87  
Sea Level Pressure  
Sea Level Pressure 29.93 in    
Wind  
Wind Speed 5 mph (North)    
Max Wind Speed 23 mph    
Max Gust Speed 29 mph    
Visibility 10 miles    
Events      
T = Trace of Precipitation, MM = Missing Value Source: NWS Daily Summary

Daily Weather History Graph

Daily Weather History Graph

Search for Another Location

Airport or City:

Trip Planner

Search our weather history database for the weather conditions in past years. The results will help you decide how hot, cold, wet, or windy it might be!

Date:

Astronomy

Sep. 09, 2013 Rise Set
Actual Time 6:46 AM PDT 7:33 PM PDT
Civil Twilight 6:17 AM PDT 8:02 PM PDT
Nautical Twilight 5:43 AM PDT 8:36 PM PDT
Astronomical Twilight 5:07 AM PDT 9:12 PM PDT
Moon 11:23 AM PDT (9/9) 9:45 PM PDT (9/9)
Length of Visible Light 13h 44m
Length of Day
12h 46m
Waxing Crescent, 20% of the Moon is Illuminated
Sep 9
Waxing Crescent
Sep 12
First Quarter
Sep 19
Full
Sep 26
Last Quarter
Oct 4
New

Hourly Weather History & Observations

Time (PDT) Temp. Heat Index Dew Point Humidity Pressure Visibility Wind Dir Wind Speed Gust Speed Precip Events Conditions
12:53 AM 68.0 °F - 55.9 °F 65% 29.97 in 10.0 mi Calm Calm - N/A   Clear
1:53 AM 64.9 °F - 55.9 °F 73% 29.97 in 10.0 mi Calm Calm - N/A   Clear
2:53 AM 64.0 °F - 55.0 °F 73% 29.98 in 10.0 mi Calm Calm - N/A   Clear
3:53 AM 62.1 °F - 55.0 °F 78% 29.98 in 10.0 mi Calm Calm - N/A   Clear
4:53 AM 61.0 °F - 55.0 °F 81% 29.98 in 10.0 mi Calm Calm - N/A   Clear
5:53 AM 60.1 °F - 55.9 °F 86% 29.98 in 10.0 mi Calm Calm - N/A   Clear
6:53 AM 59.0 °F - 55.0 °F 87% 29.99 in 10.0 mi Calm Calm - N/A   Clear
7:53 AM 61.0 °F - 55.9 °F 83% 30.01 in 10.0 mi Calm Calm - N/A   Clear
8:53 AM 64.9 °F - 57.0 °F 75% 30.01 in 10.0 mi Calm Calm - N/A   Clear
9:53 AM 71.1 °F - 57.9 °F 63% 30.00 in 10.0 mi Calm Calm - N/A   Clear
10:53 AM 75.0 °F - 57.9 °F 55% 29.98 in 10.0 mi Calm Calm - N/A   Clear
11:53 AM 78.1 °F - 59.0 °F 52% 29.96 in 10.0 mi Calm Calm - N/A   Clear
12:53 PM 84.9 °F 83.9 °F 57.0 °F 38% 29.93 in 10.0 mi NNE 8.1 mph - N/A   Clear
1:53 PM 88.0 °F 85.9 °F 54.0 °F 31% 29.91 in 10.0 mi North 16.1 mph - N/A   Clear
2:53 PM 90.0 °F - 50.0 °F 25% 29.88 in 10.0 mi North 11.5 mph 23.0 mph N/A   Clear
3:53 PM 91.0 °F - 50.0 °F 24% 29.85 in 10.0 mi North 18.4 mph 23.0 mph N/A   Clear
4:53 PM 90.0 °F - 52.0 °F 27% 29.85 in 10.0 mi NNE 18.4 mph 25.3 mph N/A   Clear
5:53 PM 89.1 °F 86.7 °F 53.1 °F 29% 29.84 in 10.0 mi North 13.8 mph 21.9 mph N/A   Clear
6:53 PM 86.0 °F - 52.0 °F 31% 29.84 in 10.0 mi NNW 9.2 mph - N/A   Clear
7:53 PM 82.9 °F - 52.0 °F 34% 29.86 in 10.0 mi NNW 5.8 mph - N/A   Clear
8:53 PM 81.0 °F - 52.0 °F 36% 29.87 in 10.0 mi North 4.6 mph - N/A   Clear
9:53 PM 79.0 °F - 53.1 °F 40% 29.87 in 10.0 mi North 3.5 mph - N/A   Clear
10:53 PM 75.0 °F - 54.0 °F 48% 29.86 in 10.0 mi NE 4.6 mph - N/A   Clear
11:53 PM 73.9 °F - 55.9 °F 53% 29.86 in 10.0 mi Calm Calm - N/A   Clear